• In Spain
  • List of Countries
  • For 7 days
  • Water Temperature
  • Satellite Maps
  • Weather Map
  • Weather Widgets
  • user-avatar
    Login

    Hourly Weather Uige

    Today, 21 July, Saturday

    Time Temperature Precipitation Wind Pressure Humidity
    00:00 +21°C° 0 mm 1 mps 692 mmHg 48%
    01:00 +18°C° 0 mm 0 mps 692 mmHg 55%
    02:00 +18°C° 0 mm 0 mps 691 mmHg 56%
    03:00 +18°C° 0 mm 0 mps 691 mmHg 57%
    04:00 +17°C° 0 mm 0 mps 691 mmHg 58%
    05:00 +18°C° 0 mm 0 mps 691 mmHg 56%
    06:00 +20°C° 0 mm 1 mps 692 mmHg 53%
    07:00 +19°C° 0 mm 0 mps 692 mmHg 50%
    08:00 +25°C° 0 mm 1 mps 693 mmHg 41%
    09:00 +28°C° 0 mm 1 mps 694 mmHg 32%
    10:00 +32°C° 0 mm 2 mps 694 mmHg 23%
    11:00 +35°C° 0 mm 2 mps 694 mmHg 21%
    12:00 +36°C° 0 mm 2 mps 693 mmHg 18%
    13:00 +37°C° 0 mm 2 mps 693 mmHg 18%
    14:00 +37°C° 0 mm 2 mps 693 mmHg 18%
    15:00 +36°C° 0 mm 1 mps 692 mmHg 17%
    16:00 +35°C° 0 mm 1 mps 692 mmHg 17%
    17:00 +33°C° 0 mm 1 mps 692 mmHg 21%
    18:00 +30°C° 0 mm 1 mps 691 mmHg 26%
    19:00 +27°C° 0 mm 1 mps 691 mmHg 30%
    20:00 +26°C° 0 mm 1 mps 692 mmHg 36%
    21:00 +25°C° 0 mm 1 mps 692 mmHg 42%
    22:00 +23°C° 0 mm 1 mps 693 mmHg 48%
    23:00 +22°C° 0 mm 1 mps 692 mmHg 57%

    Tomorrow, 22 July, Sunday

    Time Temperature Precipitation Wind Pressure Humidity
    00:00 +21°C° 0 mm 1 mps 692 mmHg 65%
    01:00 +20°C° 0 mm 1 mps 692 mmHg 73%
    02:00 +20°C° 0 mm 1 mps 692 mmHg 77%
    03:00 +19°C° 0 mm 1 mps 691 mmHg 81%
    04:00 +19°C° 0 mm 1 mps 691 mmHg 84%
    05:00 +19°C° 0 mm 1 mps 691 mmHg 80%
    06:00 +20°C° 0 mm 1 mps 692 mmHg 76%
    07:00 +20°C° 0 mm 1 mps 692 mmHg 72%
    08:00 +24°C° 0 mm 1 mps 693 mmHg 55%
    09:00 +29°C° 0 mm 1 mps 694 mmHg 38%
    10:00 +34°C° 0 mm 2 mps 694 mmHg 21%
    11:00 +36°C° 0 mm 2 mps 694 mmHg 18%
    12:00 +37°C° 0 mm 2 mps 694 mmHg 15%
    13:00 +39°C° 0 mm 2 mps 693 mmHg 12%
    14:00 +39°C° 0 mm 2 mps 693 mmHg 12%
    15:00 +37°C° 0 mm 1 mps 692 mmHg 11%
    16:00 +37°C° 0 mm 1 mps 691 mmHg 11%
    17:00 +34°C° 0 mm 1 mps 691 mmHg 15%
    18:00 +31°C° 0 mm 1 mps 691 mmHg 18%
    19:00 +28°C° 0 mm 2 mps 691 mmHg 22%
    20:00 +26°C° 0 mm 2 mps 692 mmHg 32%
    21:00 +24°C° 0 mm 2 mps 692 mmHg 43%
    22:00 +23°C° 0 mm 2 mps 693 mmHg 54%
    23:00 +22°C° 0 mm 1 mps 692 mmHg 64%

    Day after tomorrow, 23 July, Monday

    Time Temperature Precipitation Wind Pressure Humidity
    00:00 +21°C° 0 mm 1 mps 692 mmHg 75%
    01:00 +19°C° 0 mm 1 mps 692 mmHg 85%
    02:00 +19°C° 0 mm 1 mps 692 mmHg 87%
    03:00 +19°C° 0 mm 1 mps 691 mmHg 90%
    04:00 +18°C° 0 mm 1 mps 691 mmHg 92%
    05:00 +19°C° 0 mm 1 mps 691 mmHg 85%
    06:00 +19°C° 0 mm 1 mps 692 mmHg 78%
    07:00 +20°C° 0 mm 1 mps 692 mmHg 72%
    08:00 +24°C° 0 mm 1 mps 693 mmHg 54%
    09:00 +28°C° 0 mm 2 mps 694 mmHg 37%
    10:00 +34°C° 0 mm 2 mps 695 mmHg 20%
    11:00 +35°C° 0 mm 2 mps 694 mmHg 16%
    12:00 +37°C° 0 mm 2 mps 694 mmHg 13%
    13:00 +39°C° 0 mm 2 mps 693 mmHg 10%
    14:00 +39°C° 0 mm 2 mps 692 mmHg 10%
    15:00 +38°C° 0 mm 2 mps 692 mmHg 10%
    16:00 +38°C° 0 mm 2 mps 691 mmHg 10%
    17:00 +35°C° 0 mm 2 mps 691 mmHg 14%
    18:00 +31°C° 0 mm 2 mps 691 mmHg 19%
    19:00 +28°C° 0 mm 1 mps 691 mmHg 23%
    20:00 +26°C° 0 mm 1 mps 692 mmHg 32%
    21:00 +25°C° 0 mm 1 mps 692 mmHg 41%
    22:00 +23°C° 0 mm 1 mps 693 mmHg 50%
    23:00 +22°C° 0 mm 1 mps 693 mmHg 58%

    24 July, Tuesday

    Time Temperature Precipitation Wind Pressure Humidity
    00:00 +21°C° 0 mm 1 mps 692 mmHg 66%
    01:00 +20°C° 0 mm 1 mps 692 mmHg 74%
    02:00 +20°C° 0 mm 1 mps 692 mmHg 76%
    03:00 +19°C° 0 mm 1 mps 691 mmHg 78%
    04:00 +17°C° 0 mm 0 mps 691 mmHg 81%
    05:00 +19°C° 0 mm 1 mps 692 mmHg 76%
    06:00 +20°C° 0 mm 1 mps 692 mmHg 72%
    07:00 +20°C° 0 mm 1 mps 692 mmHg 68%
    08:00 +24°C° 0 mm 1 mps 693 mmHg 53%
    09:00 +28°C° 0 mm 2 mps 694 mmHg 37%
    10:00 +34°C° 0 mm 3 mps 695 mmHg 22%
    11:00 +36°C° 0 mm 2 mps 694 mmHg 19%
    12:00 +38°C° 0 mm 2 mps 694 mmHg 15%
    13:00 +40°C° 0 mm 2 mps 693 mmHg 12%
    14:00 +39°C° 0 mm 2 mps 693 mmHg 12%
    15:00 +39°C° 0 mm 1 mps 692 mmHg 11%
    16:00 +39°C° 0 mm 1 mps 691 mmHg 11%
    17:00 +34°C° 0 mm 1 mps 691 mmHg 16%
    18:00 +31°C° 0 mm 1 mps 691 mmHg 20%
    19:00 +28°C° 0 mm 1 mps 691 mmHg 25%
    20:00 +26°C° 0 mm 1 mps 692 mmHg 34%
    21:00 +25°C° 0 mm 1 mps 692 mmHg 44%
    22:00 +23°C° 0 mm 1 mps 693 mmHg 53%
    23:00 +22°C° 0 mm 1 mps 693 mmHg 62%

    25 July, Wednesday

    Time Temperature Precipitation Wind Pressure Humidity
    00:00 +21°C° 0 mm 1 mps 692 mmHg 70%
    01:00 +20°C° 0 mm 1 mps 692 mmHg 79%
    02:00 +20°C° 0 mm 1 mps 692 mmHg 83%
    03:00 +19°C° 0 mm 1 mps 692 mmHg 88%
    04:00 +18°C° 0 mm 1 mps 692 mmHg 92%
    05:00 +19°C° 0 mm 1 mps 692 mmHg 91%
    06:00 +17°C° 0 mm 0 mps 692 mmHg 89%
    07:00 +17°C° 0 mm 0 mps 693 mmHg 88%
    08:00 +23°C° 0 mm 1 mps 693 mmHg 69%
    09:00 +27°C° 0 mm 1 mps 694 mmHg 49%
    10:00 +31°C° 0 mm 2 mps 695 mmHg 30%
    11:00 +35°C° 0 mm 2 mps 694 mmHg 24%
    12:00 +36°C° 0 mm 1 mps 694 mmHg 19%
    13:00 +39°C° 0 mm 1 mps 693 mmHg 13%
    14:00 +39°C° 0 mm 1 mps 692 mmHg 13%
    15:00 +39°C° 0 mm 1 mps 692 mmHg 13%
    16:00 +37°C° 0 mm 1 mps 691 mmHg 13%
    17:00 +34°C° 0 mm 1 mps 691 mmHg 18%
    18:00 +31°C° 0 mm 1 mps 691 mmHg 22%
    19:00 +28°C° 0 mm 2 mps 692 mmHg 27%
    20:00 +26°C° 0 mm 2 mps 692 mmHg 37%
    21:00 +25°C° 0 mm 2 mps 693 mmHg 48%
    22:00 +23°C° 0 mm 2 mps 693 mmHg 58%
    23:00 +21°C° 0 mm 2 mps 693 mmHg 67%

    26 July, Thursday

    Time Temperature Precipitation Wind Pressure Humidity
    00:00 +20°C° 0 mm 2 mps 693 mmHg 76%
    01:00 +19°C° 0 mm 2 mps 692 mmHg 85%
    02:00 +19°C° 0 mm 2 mps 692 mmHg 86%
    03:00 +19°C° 0 mm 2 mps 692 mmHg 87%
    04:00 +19°C° 0 mm 2 mps 692 mmHg 88%
    05:00 +19°C° 0 mm 2 mps 692 mmHg 86%
    06:00 +20°C° 0 mm 1 mps 693 mmHg 85%
    07:00 +20°C° 0 mm 1 mps 693 mmHg 83%
    08:00 +22°C° 0 mm 1 mps 694 mmHg 72%
    09:00 +25°C° 0 mm 1 mps 694 mmHg 60%
    10:00 +27°C° 0 mm 2 mps 695 mmHg 48%
    11:00 +30°C° 0 mm 1 mps 694 mmHg 40%
    12:00 +33°C° 0 mm 1 mps 694 mmHg 31%
    13:00 +36°C° 0 mm 1 mps 694 mmHg 23%
    14:00 +35°C° 0 mm 1 mps 693 mmHg 23%
    15:00 +36°C° 0 mm 2 mps 692 mmHg 23%
    16:00 +35°C° 0 mm 2 mps 692 mmHg 23%
    17:00 +32°C° 0 mm 2 mps 692 mmHg 29%
    18:00 +29°C° 0 mm 2 mps 692 mmHg 35%
    19:00 +27°C° 0 mm 3 mps 692 mmHg 42%
    20:00 +25°C° 0 mm 2 mps 693 mmHg 54%
    21:00 +23°C° 0 mm 2 mps 693 mmHg 66%
    22:00 +21°C° 0 mm 2 mps 693 mmHg 78%
    23:00 +20°C° 0 mm 2 mps 693 mmHg 81%
    Show more